Погода в Енисейске

Погода в Енисейске : погода сейчас, прогноз погоды и архив. Всё, что Вы хотите узнать о погоде в Енисейске!

Хотите узнать прогноз погоды в Енисейске? Тогда Вам сюда: Погода в Енисейске

Поиск расширенной информации на нашем сайте:

Другие новости

Новости СМИ2

Главная страница сайта

Новости сайта

03.07.2017

Напоминаем, что на нашем специализированном сайте Метеоцентр.Азия вы можете получить высокодетализированные автоматические прогнозы погоды по пунктам России, СНГ и мира в авиационном формате (включающие направление и скорость ветра, видимость, явления погоды, количество и форму облачности, нижнюю и верхнюю границу облачности).


Погода в Енисейске - сегодня

Время (UTC), дата Ветер
(°,м/с) 
Видим.   Явления Облачность Т
(°С)
Тd
(°С)
f(%) Тe
(°С)
Pmin
(гПа)
dP
(гПа)
Po
(мм)
O2
(г/м3)
Тmin Tmax R s Состояние
почвы
21 20.10.17 110 (В) 30000 м    10/10 330 м кучево-дожд. 
[Cb cap]
+2 +2 100 1010  -2.3  750  300           
00 21.10.17 140 (ЮВ) 10 км  слаб. ливневой дождь  10/10 300 м кучево-дожд. 
[Cb cap]
+2.8 +2.3 97 +1  1006.7  -3.2  747  298  -0.4    равномерный
мокрый или
старый снег
100% 
03 21.10.17 220 (ЮЗ) 20000 м  в посл. час ливневой дождь  9/6 600 м кучево-дожд., верхняя 
[Cb cap|Ci fib]
+4.7 +3.2 90 +4  1007.1  0.5  748  296           
06 21.10.17 230 (ЮЗ) 20000 м  {ливн. осадки}  9/8 300 м кучево-дожд., верхняя 
[Cb cap|Ci fib]
+6.8 +1 66 +5  1008.1  749  294           
09 21.10.17 260 (З) 2{10}  20000 м  {ливн. осадки}  9/8 300 м кучево-дожд., верхняя 
[Cb cap|Ci fib]
+4.2 +2.2 87 +4  1009  0.8  749  297           
12 21.10.17 150 (ЮВ) 30000 м  {ливн. осадки}  4/0 верхняя 
[Ci fib]
+3 +2 93 +2  1008.6  -0.3  749  298    +7.2  0.9     
15 21.10.17 120 (ЮВ) 30000 м    9/0 средняя, верхняя 
[Ac trans|Ci fib]
+1.8 +1.3 96 +3  1008.7  749  300           
18 21.10.17 130 (ЮВ) 30000 м    9/0 средняя, верхняя 
[Ac trans|Ci fib]
+1.8 +1.5 98 +3  1008.9  0.1  749  300           
21 21.10.17 160 (Ю) 30000 м    9/0 средняя, верхняя 
[Ac trans|Ci fib]
+1.7 +1.4 98 +2  1009.4  0.5  749  300           
00 22.10.17 110 (В) 20000 м    9/0 средняя, верхняя 
[Ac trans|Ci fib]
-0.8 -0.9 99 -3  1009.6  0.1  749  303  -0.9         
03 22.10.17 150 (ЮВ) 20000 м    10/8 600 м кучево-дожд., средняя 
[Cb cap|Ac und]
+2 +1.7 98 +3  1009.5  749  299           
06 22.10.17 220 (ЮЗ) 20000 м    9/5 600 м кучево-дожд., средняя, верхняя 
[Cb cap|Ac trans|Ci fib]
+5.5 +3.1 85 +6  1008.5  -0.8  749  295           
09 22.10.17 тихо ()   20000 м    9/8 600 м кучево-дожд., средняя, верхняя 
[Cb cap|Ac trans|Ci fib]
+6 +2.1 76 +6  1007.6  -0.9  748  295           
12 22.10.17 170 (Ю) 30000 м  {ливн. осадки}  9/6 600 м кучево-дожд., средняя, верхняя 
[Cb cap|Ac trans|Ci sp]
+3.9 +2.4 90 +3  1007.4  -0.3  748  297    +6.6  0.4     
15 22.10.17 200 (Ю) 30000 м    10/5 600 м кучево-дожд., средняя 
[Cb cap|Ac und]
+3.8 -0.5 73 +3  1007.7  0.3  748  297           
18 22.10.17 250 (З) 30000 м  {ливн. осадки}  3/0 средняя 
[Ac trans]
+0.4 -2.7 80 -1  1010.4  2.5  750  302           
21 22.10.17 240 (ЮЗ) 30000 м    4/0 средняя 
[Ac trans]
-0.4 -3.1 82 -2  1012.7  2.3  752  304           
00 23.10.17 230 (ЮЗ) 20000 м    9/0 средняя, верхняя 
[Ac trans|Ci fib]
-1.9 -5 79 -4  1015  2.2  753  306    -2.2  0.9  <0.5  сухой снег
50-90% 
03 23.10.17 240 (ЮЗ) 20000 м    9/0 средняя, верхняя 
[Ac trans|Ci sp]
-0.4 -4.1 76 -2  1017.9  2.9  756  305           
06 23.10.17 270 (З) 4000 м  слаб. ливневой снег  9/8 600 м кучево-дожд., средняя, верхняя 
[Cb cap|Ac trans|Ci sp]
+0.6 -3.3 75 -2  1020.2  2.4  757  305           
09 23.10.17 290 (З) 4000 м  слаб. ливневой снег  9/8 600 м кучево-дожд., средняя, верхняя 
[Cb cap|Ac trans|Ci sp]
+0.3 -5.1 67 -1  1022.8  2.5  759  306           
12 23.10.17 230 (ЮЗ) 30000 м  {ливн. осадки}  9/5 600 м кучево-дожд., средняя, верхняя 
[Cb cap|Ac trans|Ci sp]
-0.4 -5.9 66 -1  1024.5  1.7  761  308    +1  0.0     
15 23.10.17 220 (ЮЗ) 30000 м    9/3 600 м кучево-дожд., средняя, верхняя 
[Cb cap|Ac trans|Ci sp]
-0.2 -6.7 62 -1  1025.3  0.8  761  308           
18 23.10.17 220 (ЮЗ) 30000 м    9/0 средняя, верхняя 
[Ac trans|Ci sp]
-0.8 -6.1 67 -2  1025.3  761  308           
21 23.10.17 220 (ЮЗ) 30000 м    9/4 600 м кучево-дожд., средняя, верхняя 
[Cb cap|Ac trans|Ci fib]
-1.6 -6.1 71 -3  1024.9  -0.5  761  309           
Время (UTC), дата Ветер
(°,м/с) 
Видим.   Явления Облачность Т
(°С)
Тd
(°С)
f(%) Тe
(°С)
Pmin
(гПа)
dP
(гПа)
Po
(мм)
O2
(г/м3)
Тmin Tmax R s Состояние
почвы

Для получения пояснительной информации подведите курсор к названию столбца.

ПОГОДА в Енисейске - архив

Всё, что Вы хотите узнать о погоде в Енисейске - удобно и подробно!

Выберите нужную дату (начиная с 1 января 2015* года) и нажмите кнопку "Найти".
Будут отображены архивные сводки погоды по пункту Енисейск, начиная с указанной даты.


Отображать данные в формате CSV (для использования в таблицах Excel)


Внимание! Наш архив погоды предназначен исключительно для личного некоммерческого использования в познавательных целях. Если Вам необходимы официальные справки о состоянии погоды (для производственных, юридических, коммерческих и т.п. целей), обращайтесь в органы Росгидромета.

*Примечание: данная дата относится к архиву по метеостанциям СССР (Россия, СНГ, Балтия).
Архив по метеостанциям Зарубежной Европы и Азии (кроме Китая) хранится 10 дней, по другим регионам земного шара (Китай, Африка, Америка, Австралия, Океания) - 1 день.

Енисейск - район местоположения метеостанции


Название, широта, долгота, высота метеостанции:
Енисейск 58.4°ш. 92.2°д. 79 м над ур. моря [Российская Федерация]

Дополнительная информация

В oтличие oт бoльшинства пoгoдных сайтoв мы публикуем пoдрoбную метеoинфoрмацию в детальнoм прoфессиoнальнoм фoрмате.

Характеристики температуры и влажнoсти вoздуха измеряются на высoте 2 м в тени вдали oт зданий и деревьев.
Скoрoсть ветра измеряется на высoте 10 м (на урoвне рoста челoвека скoрoсть ветра ниже в 1.5-2 раза). Если метеoстанция нахoдится в гoрoде или в лесу, тo скoрoсть ветра занижена на 2-4 м/с пo сравнению с oткрытым местoм. Скoрoсть ветра над акватoриями крупных рек и oзёр, а также на вершинах хoлмoв на 2-5 м/с выше, чем в oбычных услoвиях.
Атмoсфернoе давление в разных тoчках местнoсти мoжет значительнo oтличаться oт давления на метеoстанции, в зависимoсти oт услoвий рельефа (при пoдъёме на 10 м давление пoнижается примернo на 1 мм рт.ст.).